{"data":{"norad_id":47728,"intl_designator":"2021-017G","name":"STARLINK-2131","alt_names":[],"object_type":"PAYLOAD","status":"ACTIVE","operator":null,"country":"US","launch_date":"2021-03-04","launch_site_code":"AFETR","launch_vehicle":null,"mission":null,"orbit_class":"UNKNOWN","rcs_meters":null,"size_class":null,"mass_kg":null,"dimensions":null,"purposes":["comms"],"wikipedia_slug":null,"has_3d_model":false,"image_url":null,"decayed_at":null,"tle_current":{"epoch":"2026-09-20T04:00:03.000096Z","epoch_age_seconds":54470,"freshness":"FRESH","line1":"1 47728U 21017G   26263.16670139  .00146072  00000+0  50343-3 0  9998","line2":"2 47728  53.0621 341.3393 0008470 347.5054 341.1716 15.88613581  5891","mean_motion":15.88613581,"eccentricity":0.000847,"inclination_deg":53.0621,"raan_deg":341.3393,"arg_perigee_deg":347.5054,"mean_anomaly_deg":341.1716,"bstar":0.00050343,"rev_number":589,"period_min":90.64507676521,"perigee_km":300.50745642549,"apogee_km":311.83067089733,"semimajor_km":6684.3060636614,"source":"CELESTRAK","updated_at":"2026-09-20T09:00:38.599818Z"}}}